Rotterdam, Netherlands

11:47 PM CEST on August 25, 2016 (GMT +0200)
Rotterdam

Weather History for EHRD - February, 2013

Change the Weather History Date:

Tuesday, February 19, 2013

  Actual Average Record
Temperature  
Mean Temperature 34 °F -  
Max Temperature 43 °F 46 °F 51 °F (1998)
Min Temperature 26 °F 35 °F 24 °F (2003)
Degree Days  
Heating Degree Days 30    
Moisture  
Dew Point 35 °F    
Average Humidity 91    
Maximum Humidity 100    
Minimum Humidity 74    
Precipitation  
Precipitation 0.01 in - - ()
Sea Level Pressure  
Sea Level Pressure 30.08 in    
Wind  
Wind Speed 4 mph ()    
Max Wind Speed 14 mph    
Max Gust Speed -    
Visibility 2.9 miles    
Events Fog , Rain    
Averages and records for this station are not official NWS values.
T = Trace of Precipitation, MM = Missing Value Source: Averaged Metar Reports

Daily Weather History Graph

Daily Weather History Graph

Search for Another Location

Airport or City:

Trip Planner

Search our weather history database for the weather conditions in past years. The results will help you decide how hot, cold, wet, or windy it might be!

Date:

Astronomy

Feb. 19, 2013 Rise Set
Actual Time 7:48 AM CET 6:03 PM CET
Civil Twilight 7:14 AM CET 6:38 PM CET
Nautical Twilight 6:35 AM CET 7:17 PM CET
Astronomical Twilight 5:56 AM CET 7:56 PM CET
Moon 11:59 AM CET (2/19) 3:30 AM CET (2/19)
Length of Visible Light 11h 24m
Length of Day
10h 15m
Waxing Gibbous, 65% of the Moon is Illuminated
Feb 19
Waxing Gibbous
Feb 25
Full
Mar 4
Last Quarter
Mar 11
New
Mar 19
First Quarter

Hourly Weather History & Observations

Time (CET) Temp. Windchill Dew Point Humidity Pressure Visibility Wind Dir Wind Speed Gust Speed Precip Events Conditions
12:25 AM 30.2 °F - 28.4 °F 93% 30.15 in 0.7 mi NW 2.3 mph - N/A   Mist
12:55 AM 30.2 °F - 30.2 °F 100% 30.12 in 1.6 mi West 1.2 mph - N/A   Partly Cloudy
1:00 AM 29 °F - 29 °F 100% 30.14 in 1 mi West 2.2 mph - - Fog Fog
1:25 AM 28.4 °F - 28.4 °F 100% 30.12 in 0.7 mi West 1.2 mph - N/A   Scattered Clouds
1:55 AM 28.4 °F - 28.4 °F 100% 30.12 in 0.2 mi SW 1.2 mph - N/A Fog Light Freezing Fog
2:25 AM 28.4 °F - 28.4 °F 100% 30.12 in 0.1 mi South 2.3 mph - N/A Fog Light Freezing Fog
2:55 AM 28.4 °F - 26.6 °F 93% 30.12 in 1.0 mi SW 2.3 mph - N/A   Mist
3:25 AM 26.6 °F - 26.6 °F 100% 30.12 in 0.2 mi Calm Calm - N/A Fog Light Freezing Fog
3:55 AM 28.4 °F 23.3 °F 28.4 °F 100% 30.09 in 1.1 mi WSW 4.6 mph - N/A   Overcast
4:00 AM 30 °F - 30 °F 98% 30.11 in 1 mi WSW 4.5 mph - - Fog Fog
4:25 AM 32.0 °F 27.5 °F 32.0 °F 100% 30.09 in 1.7 mi WSW 4.6 mph - N/A   Overcast
4:55 AM 32.0 °F 28.7 °F 32.0 °F 100% 30.09 in 1.7 mi West 3.5 mph - N/A   Overcast
5:25 AM 32.0 °F 28.7 °F 32.0 °F 100% 30.06 in 1.6 mi West 3.5 mph - N/A   Overcast
5:55 AM 32.0 °F - 32.0 °F 100% 30.06 in 1.8 mi Variable 2.3 mph - N/A   Overcast
6:25 AM 32.0 °F 28.7 °F 32.0 °F 100% 30.06 in 1.8 mi WSW 3.5 mph - N/A   Mostly Cloudy
6:55 AM 33.8 °F 29.6 °F 33.8 °F 100% 30.06 in - West 4.6 mph - N/A   Overcast
7:00 AM 34 °F - 34 °F 99% 30.08 in 2 mi West 4.5 mph - -   Mist
7:25 AM 35.6 °F 32.8 °F 33.8 °F 93% 30.06 in - West 3.5 mph - N/A   Overcast
7:55 AM 35.6 °F 31.7 °F 33.8 °F 93% 30.06 in - West 4.6 mph - N/A   Overcast
8:25 AM 35.6 °F 32.8 °F 33.8 °F 93% 30.06 in 2.5 mi WSW 3.5 mph - N/A   Overcast
8:55 AM 35.6 °F 32.8 °F 33.8 °F 93% 30.06 in - WSW 3.5 mph - N/A   Overcast
9:25 AM 37.4 °F 33.8 °F 35.6 °F 93% 30.06 in - WSW 4.6 mph - N/A   Overcast
9:55 AM 39.2 °F 37.0 °F 37.4 °F 93% 30.06 in - West 3.5 mph - N/A   Mostly Cloudy
10:00 AM 39 °F - 37 °F 90% 30.09 in 3 mi West 4.5 mph - -   Mist
10:25 AM 41.0 °F 38.0 °F 37.4 °F 87% 30.06 in 3.1 mi WNW 4.6 mph - N/A   Mostly Cloudy
10:55 AM 41.0 °F 37.1 °F 37.4 °F 87% 30.06 in 5.0 mi NW 5.8 mph - N/A   Mostly Cloudy
11:25 AM 41.0 °F 36.4 °F 37.4 °F 87% 30.06 in 5.0 mi NW 6.9 mph - N/A   Mostly Cloudy
11:55 AM 41.0 °F 37.1 °F 37.4 °F 87% 30.06 in 5.0 mi NW 5.8 mph - N/A   Overcast
12:25 PM 42.8 °F 39.3 °F 37.4 °F 81% 30.06 in 5.0 mi NNW 5.8 mph - N/A   Mostly Cloudy
1:00 PM 43 °F - 37 °F 74% 30.07 in 4 mi NW 6.7 mph - -   Mist
1:25 PM 42.8 °F 38.6 °F 37.4 °F 81% 30.06 in 5.0 mi NNW 6.9 mph - N/A   Overcast
1:55 PM 42.8 °F 38.6 °F 37.4 °F 81% 30.04 in 4.3 mi NNW 6.9 mph - N/A   Overcast
2:55 PM 42.8 °F 39.3 °F 37.4 °F 81% 30.04 in 3.7 mi NNW 5.8 mph - N/A   Mostly Cloudy
3:25 PM 42.8 °F 39.3 °F 37.4 °F 81% 30.04 in 3.7 mi NNW 5.8 mph - N/A   Mostly Cloudy
3:55 PM 42.8 °F 38.6 °F 37.4 °F 81% 30.04 in 3.7 mi NNW 6.9 mph - N/A   Overcast
4:00 PM 42 °F - 37 °F 76% 30.04 in 4 mi NNW 6.7 mph - -   Mist
4:25 PM 42.8 °F 39.3 °F 37.4 °F 81% 30.04 in 3.1 mi NNW 5.8 mph - N/A   Overcast
4:55 PM 42.8 °F 40.1 °F 37.4 °F 81% 30.04 in 3.1 mi North 4.6 mph - N/A Rain Light Rain
5:25 PM 41.0 °F 38.0 °F 37.4 °F 87% 30.04 in 3.1 mi North 4.6 mph - N/A Rain Drizzle
5:55 PM 41.0 °F 38.0 °F 37.4 °F 87% 30.04 in - North 4.6 mph - N/A Rain Light Rain
6:25 PM 41.0 °F 38.0 °F 39.2 °F 93% 30.04 in - North 4.6 mph - N/A   Drizzle
6:55 PM 41.0 °F 39.0 °F 39.2 °F 93% 30.06 in - North 3.5 mph - N/A   Overcast
7:00 PM 40 °F - 39 °F 93% 30.07 in 2 mi North 2.2 mph - - Rain Drizzle
7:25 PM 41.0 °F 39.0 °F 39.2 °F 93% 30.06 in - North 3.5 mph - N/A   Overcast
7:55 PM 41.0 °F 38.0 °F 39.2 °F 93% 30.06 in - North 4.6 mph - N/A   Overcast
8:55 PM 39.2 °F 32.5 °F 39.2 °F 100% 30.09 in 0.9 mi NE 10.4 mph - N/A   Overcast
9:25 PM 39.2 °F 31.2 °F 37.4 °F 93% 30.09 in 1.4 mi ENE 13.8 mph - N/A   Overcast
9:55 PM 39.2 °F 32.0 °F 37.4 °F 93% 30.09 in 5.0 mi ENE 11.5 mph - N/A   Overcast
10:00 PM 38 °F - 36 °F 92% 30.12 in 5 mi ENE 13.4 mph - -   Mist
10:25 PM 39.2 °F 31.6 °F 35.6 °F 87% 30.12 in 6.2 mi ENE 12.7 mph - N/A   Overcast
10:55 PM 37.4 °F 29.3 °F 33.8 °F 87% 30.12 in 6.2 mi ENE 12.7 mph - N/A   Overcast
11:25 PM 37.4 °F 28.9 °F 32.0 °F 81% 30.12 in 6.2 mi East 13.8 mph - N/A   Overcast
11:55 PM 35.6 °F 26.6 °F 30.2 °F 81% 30.12 in 6.2 mi ENE 13.8 mph - N/A   Scattered Clouds